Temperatura - Umidità - Pioggia orarie dal 21-01-2020 al 29-01-2020

Intensità - Direzione vento orarie dal 21-01-2020 al 29-01-2020

Dati orari da stazione meteo dal 21-01-2020 al 29-01-2020

Nome Stazione Data Ora Temperatura [°C] Umidità [%] Pioggia [mm] Intensità vento[km/h] Direzione vento [°]
Savigliano 21-01-2020 01:00 -0.6 83.7 0 1.4 186
Savigliano 21-01-2020 02:00 0.2 80.8 0 0.4 178
Savigliano 21-01-2020 03:00 -0.3 80.6 0 0.4 178
Savigliano 21-01-2020 04:00 -0.8 82.7 0 0.4 170
Savigliano 21-01-2020 05:00 -0.6 83.8 0 0 168
Savigliano 21-01-2020 06:00 -0.3 83.6 0 0 168
Savigliano 21-01-2020 07:00 -0.4 82.8 0 0.4 295
Savigliano 21-01-2020 08:00 -0.5 77.4 0 0 304
Savigliano 21-01-2020 09:00 -1.2 78.3 0 0 304
Savigliano 21-01-2020 10:00 -0.7 79.8 0 0 303
Savigliano 21-01-2020 11:00 0.6 77.7 0 0 298
Savigliano 21-01-2020 12:00 1.6 71.6 0 0 292
Savigliano 21-01-2020 13:00 1.7 71.2 0 0.7 295
Savigliano 21-01-2020 14:00 4.1 67.1 0 0.4 108
Savigliano 21-01-2020 15:00 4.9 60.3 0 0.7 51
Savigliano 21-01-2020 16:00 4.2 63.6 0 1.4 151
Savigliano 21-01-2020 17:00 4.4 67.6 0 0 346
Savigliano 21-01-2020 18:00 3 73.8 0 0 343
Savigliano 21-01-2020 19:00 1.7 77.9 0 0 343
Savigliano 21-01-2020 20:00 2.1 80 0 0 344
Savigliano 21-01-2020 21:00 1.2 83.4 0 0 360
Savigliano 21-01-2020 22:00 1.1 83.5 0 0.4 316
Savigliano 21-01-2020 23:00 0.9 83.4 0 0.7 282
Savigliano 22-01-2020 00:00 -0.5 83.6 0 0 277
Savigliano 22-01-2020 01:00 -0.8 86.9 0 0 277
Savigliano 22-01-2020 02:00 -1.7 88.7 0 0 277
Savigliano 22-01-2020 03:00 -2.8 87.2 0 0.4 276
Savigliano 22-01-2020 04:00 -2.9 87.4 0 0.4 275
Savigliano 22-01-2020 05:00 -3 87.5 0 0.4 189
Savigliano 22-01-2020 06:00 -3 87.4 0 0 189
Savigliano 22-01-2020 07:00 -3.1 88.3 0 0.7 188
Savigliano 22-01-2020 08:00 -1.6 88.2 0 0 215
Savigliano 22-01-2020 09:00 -1.3 88.5 0 0 244
Savigliano 22-01-2020 10:00 0.9 82.7 0 0 241
Savigliano 22-01-2020 11:00 2.8 73.2 0 0 239
Savigliano 22-01-2020 12:00 4.6 62 0 0.4 233
Savigliano 22-01-2020 13:00 6.7 57.4 0 0.7 255
Savigliano 22-01-2020 14:00 7 60.8 0 3.2 317
Savigliano 22-01-2020 15:00 7.1 59.8 0 2.2 334
Savigliano 22-01-2020 16:00 7.5 59.3 0 0.4 334
Savigliano 22-01-2020 17:00 7.2 59.1 0 0 334
Savigliano 22-01-2020 18:00 5.5 65.2 0 0 336
Savigliano 22-01-2020 19:00 4.4 70.5 0 0 337
Savigliano 22-01-2020 20:00 2.7 75.5 0 1.1 320
Savigliano 22-01-2020 21:00 1.6 77.3 0 0.7 211
Savigliano 22-01-2020 22:00 0.2 83.8 0 0.4 150
Savigliano 22-01-2020 23:00 -0.9 83.8 0 0.4 150
Savigliano 23-01-2020 00:00 1 83.1 0 0.4 183
Savigliano 23-01-2020 01:00 1.5 78.4 0 0.4 260
Savigliano 23-01-2020 02:00 -0.2 81.1 0 1.1 214
Savigliano 23-01-2020 03:00 -0.5 82.9 0 1.4 178
Savigliano 23-01-2020 04:00 -0.6 82.5 0 2.5 175
Savigliano 23-01-2020 05:00 -0.4 79.4 0 2.2 112
Savigliano 23-01-2020 06:00 -0.7 83.3 0 0.4 0
Savigliano 23-01-2020 07:00 -0.6 83.3 0 0.4 263
Savigliano 23-01-2020 08:00 -1.3 83.7 0 0.4 306
Savigliano 23-01-2020 09:00 -1.1 86.1 0 0.4 289
Savigliano 23-01-2020 10:00 0.8 81.6 0 1.1 180
Savigliano 23-01-2020 11:00 2.8 76.5 0 0 182
Savigliano 23-01-2020 12:00 4.4 70.8 0 2.2 243
Savigliano 23-01-2020 13:00 4.5 70.7 0 2.9 292
Savigliano 23-01-2020 14:00 5.4 67.5 0 4 275
Savigliano 23-01-2020 15:00 6.9 63.5 0 2.2 316
Savigliano 23-01-2020 16:00 7 65.3 0 2.2 279
Savigliano 23-01-2020 17:00 7 66.6 0 1.1 325
Savigliano 23-01-2020 18:00 4.7 69.5 0 0 322
Savigliano 23-01-2020 19:00 4 74 0 0 322
Savigliano 23-01-2020 20:00 2.1 78.3 0 0 308
Savigliano 23-01-2020 21:00 0.1 82.3 0 0 306
Savigliano 23-01-2020 22:00 -0.5 83.9 0 0 305
Savigliano 23-01-2020 23:00 -0.6 87.3 0 0.4 303
Savigliano 24-01-2020 00:00 -0.8 89.1 0 0.4 247
Savigliano 24-01-2020 01:00 -0.8 88.6 0 0.4 191
Savigliano 24-01-2020 02:00 -0.3 83.3 0 0.4 192
Savigliano 24-01-2020 03:00 -0.8 87.3 0 1.8 184
Savigliano 24-01-2020 04:00 -0.5 86.7 0 0.4 188
Savigliano 24-01-2020 05:00 -0.8 85.6 0 0.4 185
Savigliano 24-01-2020 06:00 -0.8 89.6 0 0.7 165
Savigliano 24-01-2020 07:00 -0.6 89.8 0 1.4 156
Savigliano 24-01-2020 08:00 -0.2 88.4 0 2.2 167
Savigliano 24-01-2020 09:00 -0.7 86.8 0 1.4 180
Savigliano 24-01-2020 10:00 0.8 83.5 0 1.1 141
Savigliano 24-01-2020 11:00 2.1 79.9 0 0.7 73
Savigliano 24-01-2020 12:00 4.6 75.7 0 1.1 152
Savigliano 24-01-2020 13:00 4.9 71.4 0 0.7 202
Savigliano 24-01-2020 14:00 6.5 68.9 0 2.9 256
Savigliano 24-01-2020 15:00 7.2 64.1 0 2.2 255
Savigliano 24-01-2020 16:00 7 64.7 0 2.5 269
Savigliano 24-01-2020 17:00 5.7 71.4 0 1.8 311
Savigliano 24-01-2020 18:00 4.5 74.4 0 1.1 328
Savigliano 24-01-2020 19:00 4.4 78.1 0 0.7 327
Savigliano 24-01-2020 20:00 4 78.7 0 0 304
Savigliano 24-01-2020 21:00 4.4 78.7 0 0.4 317
Savigliano 24-01-2020 22:00 3.7 78.5 0 0 306
Savigliano 24-01-2020 23:00 2 82 0 1.1 205
Savigliano 25-01-2020 00:00 2.4 83.5 0 0.4 171
Savigliano 25-01-2020 01:00 2.4 83.4 0 1.1 152
Savigliano 25-01-2020 02:00 3.3 84 0 0 148
Savigliano 25-01-2020 03:00 3.3 83.9 0 0.4 251
Savigliano 25-01-2020 04:00 1.8 84 0 0.7 299
Savigliano 25-01-2020 05:00 1.8 83.8 0 0.7 314
Savigliano 25-01-2020 06:00 1.8 84.3 0 0.4 322
Savigliano 25-01-2020 07:00 1.7 83.6 0 0 341
Savigliano 25-01-2020 08:00 1.8 84.5 0 0 342
Savigliano 25-01-2020 09:00 1.9 83.9 0 0.4 302
Savigliano 25-01-2020 10:00 4.9 73 0.1 0 194
Savigliano 25-01-2020 11:00 4.8 69.1 0 1.4 208
Savigliano 25-01-2020 12:00 6.5 65.8 0 1.8 253
Savigliano 25-01-2020 13:00 7.1 61.8 0 1.4 85
Savigliano 25-01-2020 14:00 7.3 58.7 0 2.2 79
Savigliano 25-01-2020 15:00 7.4 59.1 0 2.2 100
Savigliano 25-01-2020 16:00 7.9 58.7 0 1.1 83
Savigliano 25-01-2020 17:00 8.5 59.2 0 0 124
Savigliano 25-01-2020 18:00 6.9 65.2 0 0.4 120
Savigliano 25-01-2020 19:00 4.6 74.1 0 0 96
Savigliano 25-01-2020 20:00 4.6 78.6 0 0.7 124
Savigliano 25-01-2020 21:00 2.7 79.5 0 0.4 165
Savigliano 25-01-2020 22:00 2 78.3 0 1.1 205
Savigliano 25-01-2020 23:00 -0.3 83.1 0 0.7 162
Savigliano 26-01-2020 00:00 -0.7 84.9 0 0.4 153
Savigliano 26-01-2020 01:00 -0.5 88.4 0 0.4 154
Savigliano 26-01-2020 02:00 -0.4 89.2 0 1.4 171
Savigliano 26-01-2020 03:00 -0.5 89.4 0 1.1 156
Savigliano 26-01-2020 04:00 -0.8 89.2 0 0.7 166
Savigliano 26-01-2020 05:00 -0.7 88.6 0 0.4 177
Savigliano 26-01-2020 06:00 -1 88.6 0 0 179
Savigliano 26-01-2020 07:00 -2 87.7 0 0.7 173
Savigliano 26-01-2020 08:00 -1.7 88.3 0 0.4 163
Savigliano 26-01-2020 09:00 -1.1 88.2 0 1.1 165
Savigliano 26-01-2020 10:00 0.3 89 0 0.4 166
Savigliano 26-01-2020 11:00 4.2 80.4 0 0.4 162
Savigliano 26-01-2020 12:00 4.6 77.7 0 1.1 85
Savigliano 26-01-2020 13:00 5.8 72.7 0 0.4 55
Savigliano 26-01-2020 14:00 6.8 67.3 0 0.7 97
Savigliano 26-01-2020 15:00 8.8 66 0 0.7 76
Savigliano 26-01-2020 16:00 8.6 67.5 0 0.7 281
Savigliano 26-01-2020 17:00 7 73 0 0.4 325
Savigliano 26-01-2020 18:00 6 76.9 0 0.7 308
Savigliano 26-01-2020 19:00 4.6 78.2 0 0 328
Savigliano 26-01-2020 20:00 4.2 81.2 0 0 328
Savigliano 26-01-2020 21:00 4.3 84.2 0 0 329
Savigliano 26-01-2020 22:00 3 84.3 0 0 318
Savigliano 26-01-2020 23:00 3.9 84.8 0 0 284
Savigliano 27-01-2020 00:00 1.6 85.8 0 0.4 282
Savigliano 27-01-2020 01:00 1.8 88.3 0 0.4 199
Savigliano 27-01-2020 02:00 -0.5 88.3 0 0.4 150
Savigliano 27-01-2020 03:00 -1 88.6 0 2.2 169
Savigliano 27-01-2020 04:00 -0.6 87.9 0 1.1 181
Savigliano 27-01-2020 05:00 -0.6 88.5 0 0.7 151
Savigliano 27-01-2020 06:00 -0.6 88.8 0 0.4 154
Savigliano 27-01-2020 07:00 -1.4 89.1 0 1.4 156
Savigliano 27-01-2020 08:00 -0.7 89.1 0 1.4 179
Savigliano 27-01-2020 09:00 -0.7 88.8 0 0.4 185
Savigliano 27-01-2020 10:00 2.1 84.8 0 0 158
Savigliano 27-01-2020 11:00 3.7 81.4 0 1.1 118
Savigliano 27-01-2020 12:00 4.6 78.6 0 1.1 89
Savigliano 27-01-2020 13:00 6.9 73.8 0 1.1 68
Savigliano 27-01-2020 14:00 7.1 72.5 0 0.7 170
Savigliano 27-01-2020 15:00 6.8 73.2 0 0.4 330
Savigliano 27-01-2020 16:00 6.7 77.5 0 0.4 316
Savigliano 27-01-2020 17:00 7.2 79.1 0 0.4 332
Savigliano 27-01-2020 18:00 7 79.8 0 0.4 322
Savigliano 27-01-2020 19:00 6.7 80.4 0 0.4 304
Savigliano 27-01-2020 20:00 5.3 79.1 0 1.4 294
Savigliano 27-01-2020 21:00 5.6 79.1 0 1.1 284
Savigliano 27-01-2020 22:00 5 79.5 0 0.7 237
Savigliano 27-01-2020 23:00 4.7 79.5 0 0 198
Savigliano 28-01-2020 00:00 4.5 83.7 0 0.4 198
Savigliano 28-01-2020 01:00 4.3 84.5 0 0.4 168
Savigliano 28-01-2020 02:00 4.2 88.5 0 0 152
Savigliano 28-01-2020 03:00 4.5 85.9 0 0.4 208
Savigliano 28-01-2020 04:00 3.7 89.1 0 0.7 157
Savigliano 28-01-2020 05:00 4.5 84.3 0 0 220
Savigliano 28-01-2020 06:00 2.7 87.1 0 1.1 149
Savigliano 28-01-2020 07:00 3.4 90.1 0 0.4 260
Savigliano 28-01-2020 08:00 4.1 84.1 0 0.4 290
Savigliano 28-01-2020 09:00 4.2 84.4 0 0.7 275
Savigliano 28-01-2020 10:00 4.6 84 0 1.1 208
Savigliano 28-01-2020 11:00 5.1 83.3 0 1.8 158
Savigliano 28-01-2020 12:00 6.9 78.1 0 4 168
Savigliano 28-01-2020 13:00 8 73 0 5.8 151
Savigliano 28-01-2020 14:00 9.5 69 0 2.2 214
Savigliano 28-01-2020 15:00 10.6 65.2 0 1.8 73
Savigliano 28-01-2020 16:00 13 55.2 0 1.1 195
Savigliano 28-01-2020 17:00 13.4 47.6 0 1.1 264
Savigliano 28-01-2020 18:00 10.2 56.3 0 0.4 223
Savigliano 28-01-2020 19:00 8.7 61.4 0 0.4 263

Riassuntivo giornaliero del 28-01-2020